Location: Unspecified
(41.1637°N, 24.2901°E)
Time: 10:41:05
(UTC+01:00)

ISS - Pass Details

Date: 13 January 2019
Orbit: 404 x 407 km, 51.6° (Epoch: 16 January)

Event Time Altitude Azimuth Distance (km) Brightness Sun altitude
Exits shadow 04:14:34 18° 112° (ESE) 1,072 -1.0 -28.2°
Drops below altitude 10° 04:15:33 10° 116° (ESE) 1,462 -0.2 -28.0°
Sets 04:17:39 0° 119° (ESE) 2,319 1.0 -27.6°
